When you browse on this site, cookies collect data to enhance your experience and personalize the content and advertising you see.
Visit our Privacy Policy to learn more. By continuing to use the site, you agree to this use of cookies and data.
  • In Lithuania
  • List of Countries
  • For 7 days
  • Water Temperature
  • Satellite Maps
  • Weather Map
  • Weather Widgets
  • user-avatar
    Login

    Hourly Weather San Luis

    Today, 23 July, Tuesday

    Time Temperature Precipitation Wind Pressure Humidity
    00:00 +5°C° 0 mm 4 mps 703 mmHg 39%
    01:00 +4°C° 0 mm 4 mps 704 mmHg 40%
    02:00 +4°C° 0 mm 4 mps 704 mmHg 41%
    03:00 +4°C° 0 mm 4 mps 704 mmHg 42%
    04:00 +4°C° 0 mm 4 mps 704 mmHg 43%
    05:00 +4°C° 0 mm 4 mps 704 mmHg 44%
    06:00 +4°C° 0 mm 4 mps 704 mmHg 45%
    07:00 +4°C° 0 mm 3 mps 704 mmHg 46%
    08:00 +4°C° 0 mm 3 mps 704 mmHg 47%
    09:00 +7°C° 0 mm 2 mps 705 mmHg 41%
    10:00 +9°C° 0 mm 2 mps 705 mmHg 35%
    11:00 +12°C° 0 mm 2 mps 706 mmHg 29%
    12:00 +13°C° 0 mm 2 mps 706 mmHg 28%
    13:00 +13°C° 0 mm 2 mps 705 mmHg 27%
    14:00 +14°C° 0 mm 2 mps 705 mmHg 25%
    15:00 +14°C° 0 mm 2 mps 705 mmHg 26%
    16:00 +12°C° 0 mm 3 mps 705 mmHg 27%
    17:00 +12°C° 0 mm 3 mps 704 mmHg 28%
    18:00 +11°C° 0 mm 4 mps 705 mmHg 31%
    19:00 +9°C° 0 mm 5 mps 705 mmHg 34%
    20:00 +7°C° 0 mm 6 mps 705 mmHg 36%
    21:00 +7°C° 0 mm 6 mps 706 mmHg 37%
    22:00 +7°C° 0 mm 5 mps 706 mmHg 38%
    23:00 +6°C° 0 mm 4 mps 706 mmHg 39%

    Tomorrow, 24 July, Wednesday

    Time Temperature Precipitation Wind Pressure Humidity
    00:00 +5°C° 0 mm 3 mps 706 mmHg 42%
    01:00 +6°C° 0 mm 2 mps 706 mmHg 44%
    02:00 +6°C° 0 mm 1 mps 706 mmHg 46%
    03:00 +6°C° 0 mm 1 mps 706 mmHg 47%
    04:00 +5°C° 0 mm 1 mps 706 mmHg 47%
    05:00 +5°C° 0 mm 1 mps 706 mmHg 48%
    06:00 +6°C° 0 mm 1 mps 706 mmHg 47%
    07:00 +5°C° 0 mm 2 mps 707 mmHg 46%
    08:00 +5°C° 0 mm 2 mps 707 mmHg 46%
    09:00 +7°C° 0 mm 3 mps 707 mmHg 41%
    10:00 +9°C° 0 mm 3 mps 708 mmHg 36%
    11:00 +11°C° 0 mm 4 mps 708 mmHg 31%
    12:00 +12°C° 0 mm 3 mps 707 mmHg 30%
    13:00 +13°C° 0 mm 3 mps 707 mmHg 29%
    14:00 +14°C° 0 mm 3 mps 706 mmHg 28%
    15:00 +14°C° 0 mm 2 mps 706 mmHg 29%
    16:00 +14°C° 0 mm 2 mps 705 mmHg 30%
    17:00 +14°C° 0 mm 2 mps 705 mmHg 31%
    18:00 +12°C° 0 mm 2 mps 705 mmHg 34%
    19:00 +10°C° 0 mm 2 mps 705 mmHg 38%
    20:00 +8°C° 0 mm 2 mps 705 mmHg 41%
    21:00 +8°C° 0 mm 2 mps 705 mmHg 42%
    22:00 +7°C° 0 mm 2 mps 704 mmHg 43%
    23:00 +7°C° 0 mm 2 mps 704 mmHg 44%

    Day after tomorrow, 25 July, Thursday

    Time Temperature Precipitation Wind Pressure Humidity
    00:00 +7°C° 0 mm 3 mps 704 mmHg 45%
    01:00 +7°C° 0 mm 3 mps 704 mmHg 46%
    02:00 +7°C° 0 mm 3 mps 704 mmHg 46%
    03:00 +5°C° 0 mm 3 mps 703 mmHg 48%
    04:00 +5°C° 0 mm 3 mps 703 mmHg 49%
    05:00 +5°C° 0 mm 3 mps 702 mmHg 51%
    06:00 +5°C° 0 mm 3 mps 702 mmHg 51%
    07:00 +5°C° 0 mm 3 mps 703 mmHg 52%
    08:00 +6°C° 0 mm 2 mps 703 mmHg 52%
    09:00 +8°C° 0 mm 3 mps 703 mmHg 45%
    10:00 +10°C° 0 mm 3 mps 703 mmHg 39%
    11:00 +13°C° 0 mm 4 mps 703 mmHg 32%
    12:00 +14°C° 0 mm 4 mps 703 mmHg 31%
    13:00 +14°C° 0 mm 4 mps 702 mmHg 30%
    14:00 +15°C° 0 mm 4 mps 701 mmHg 28%
    15:00 +15°C° 0 mm 4 mps 701 mmHg 30%
    16:00 +14°C° 0 mm 3 mps 701 mmHg 31%
    17:00 +13°C° 0 mm 3 mps 700 mmHg 32%
    18:00 +12°C° 0 mm 3 mps 700 mmHg 37%
    19:00 +10°C° 0 mm 2 mps 700 mmHg 41%
    20:00 +8°C° 0 mm 2 mps 700 mmHg 45%
    21:00 +8°C° 0 mm 2 mps 700 mmHg 46%
    22:00 +8°C° 0 mm 2 mps 701 mmHg 47%
    23:00 +7°C° 0 mm 2 mps 701 mmHg 47%

    26 July, Friday

    Time Temperature Precipitation Wind Pressure Humidity
    00:00 +7°C° 0 mm 2 mps 701 mmHg 49%
    01:00 +7°C° 0 mm 2 mps 701 mmHg 50%
    02:00 +6°C° 0 mm 2 mps 701 mmHg 51%
    03:00 +7°C° 0 mm 1 mps 701 mmHg 53%
    04:00 +6°C° 0 mm 1 mps 701 mmHg 55%
    05:00 +6°C° 0 mm 1 mps 701 mmHg 57%
    06:00 +6°C° 0 mm 1 mps 702 mmHg 56%
    07:00 +7°C° 0 mm 1 mps 702 mmHg 55%
    08:00 +7°C° 0 mm 1 mps 703 mmHg 53%
    09:00 +9°C° 0 mm 1 mps 704 mmHg 46%
    10:00 +12°C° 0 mm 1 mps 705 mmHg 39%
    11:00 +14°C° 0 mm 1 mps 706 mmHg 32%
    12:00 +15°C° 0 mm 2 mps 705 mmHg 31%
    13:00 +15°C° 0 mm 2 mps 705 mmHg 30%
    14:00 +16°C° 0 mm 3 mps 705 mmHg 28%
    15:00 +14°C° 0 mm 3 mps 705 mmHg 29%
    16:00 +14°C° 0 mm 3 mps 705 mmHg 30%
    17:00 +14°C° 0 mm 3 mps 705 mmHg 31%
    18:00 +13°C° 0 mm 3 mps 705 mmHg 34%
    19:00 +12°C° 0 mm 4 mps 705 mmHg 36%
    20:00 +11°C° 0 mm 4 mps 706 mmHg 38%
    21:00 +10°C° 0 mm 4 mps 706 mmHg 40%
    22:00 +10°C° 0 mm 4 mps 706 mmHg 42%
    23:00 +8°C° 0 mm 4 mps 706 mmHg 44%

    27 July, Saturday

    Time Temperature Precipitation Wind Pressure Humidity
    00:00 +9°C° 0 mm 3 mps 706 mmHg 45%
    01:00 +8°C° 0 mm 3 mps 706 mmHg 46%
    02:00 +8°C° 0 mm 3 mps 706 mmHg 47%
    03:00 +8°C° 0 mm 3 mps 705 mmHg 47%
    04:00 +8°C° 0 mm 3 mps 705 mmHg 47%
    05:00 +7°C° 0 mm 3 mps 705 mmHg 48%
    06:00 +7°C° 0 mm 3 mps 705 mmHg 48%
    07:00 +7°C° 0 mm 3 mps 705 mmHg 49%
    08:00 +7°C° 0 mm 3 mps 705 mmHg 49%
    09:00 +10°C° 0 mm 4 mps 705 mmHg 44%
    10:00 +12°C° 0 mm 5 mps 705 mmHg 40%
    11:00 +14°C° 0 mm 6 mps 705 mmHg 35%
    12:00 +15°C° 0 mm 6 mps 704 mmHg 34%
    13:00 +15°C° 0 mm 6 mps 703 mmHg 32%
    14:00 +16°C° 0 mm 7 mps 703 mmHg 31%
    15:00 +15°C° 0 mm 6 mps 702 mmHg 32%
    16:00 +15°C° 0 mm 6 mps 702 mmHg 33%
    17:00 +14°C° 0 mm 5 mps 701 mmHg 34%
    18:00 +13°C° 0 mm 5 mps 701 mmHg 38%
    19:00 +12°C° 0 mm 4 mps 701 mmHg 42%
    20:00 +10°C° 0 mm 3 mps 700 mmHg 47%
    21:00 +10°C° 0 mm 3 mps 700 mmHg 51%
    22:00 +9°C° 0 mm 3 mps 700 mmHg 55%
    23:00 +8°C° 0 mm 4 mps 700 mmHg 59%

    28 July, Sunday

    Time Temperature Precipitation Wind Pressure Humidity
    00:00 +8°C° 0 mm 4 mps 700 mmHg 63%
    01:00 +7°C° 0 mm 5 mps 699 mmHg 66%
    02:00 +7°C° 0 mm 5 mps 699 mmHg 69%
    03:00 +7°C° 0 mm 5 mps 699 mmHg 72%
    04:00 +5°C° 0 mm 6 mps 699 mmHg 74%
    05:00 +5°C° 0 mm 6 mps 699 mmHg 77%
    06:00 +5°C° 0 mm 6 mps 699 mmHg 76%
    07:00 +5°C° 0 mm 6 mps 699 mmHg 76%
    08:00 +7°C° 0 mm 6 mps 699 mmHg 75%
    09:00 +8°C° 0 mm 6 mps 699 mmHg 67%
    10:00 +10°C° 0 mm 6 mps 700 mmHg 60%
    11:00 +13°C° 0 mm 6 mps 700 mmHg 52%
    12:00 +14°C° 0 mm 5 mps 699 mmHg 50%
    13:00 +14°C° 0 mm 5 mps 698 mmHg 48%
    14:00 +15°C° 0 mm 5 mps 698 mmHg 46%
    15:00 +15°C° 0 mm 4 mps 698 mmHg 48%
    16:00 +14°C° 0 mm 4 mps 697 mmHg 50%
    17:00 +14°C° 0 mm 3 mps 697 mmHg 51%
    18:00 +13°C° 0 mm 3 mps 697 mmHg 57%
    19:00 +12°C° 0 mm 2 mps 697 mmHg 63%
    20:00 +10°C° 0 mm 2 mps 697 mmHg 69%
    21:00 +9°C° 0 mm 2 mps 698 mmHg 71%
    22:00 +9°C° 0 mm 2 mps 698 mmHg 73%
    23:00 +9°C° 0 mm 1 mps 698 mmHg 75%
    Show more